Retour au catalogue

STARLINK-5349

ActifCommunicationsVLEO
NORAD 56512·PAYLOAD·🇺🇸 United States

Lancé May 14, 2023 depuis Cape Canaveral Space Force Station

Loading…

Prochains Passages (prochaines 24 heures)

TLE

FraisSource: CelesTrak SupGP

Époque: Sep 14, 2026, 21:31 UTC

1 56512C 23065K   26257.89701389  .00020659  00000+0  74830-3 0  2575
2 56512  42.9993 223.6487 0001398 261.1313 323.2341 15.27567319    12

Suivez STARLINK-5349 en temps réel avec AllMySat

Download on the App Store